• în Republica Moldova
  • Lista ţărilor
  • Pe 7 zile
  • Temperatura apei
  • Hartă satelitară
  • Meteo pe hartă
  • Widget-uri
  • user-avatar
    Intrare

    Meteo pe oră la Berat

    Astăzi, 17 Ianuarie, Marţi

    Timp Temperatura Precipitaţii Vânt Presiune Umiditate
    00:00 +1°C° 0,5 mm 4 m/s 738 mmHg 91%
    01:00 +1°C° 0,5 mm 4 m/s 738 mmHg 91%
    02:00 +1°C° 0,4 mm 4 m/s 738 mmHg 91%
    03:00 +1°C° 0,4 mm 4 m/s 738 mmHg 91%
    04:00 +1°C° 0,4 mm 4 m/s 739 mmHg 91%
    05:00 +1°C° 0,2 mm 4 m/s 739 mmHg 91%
    06:00 0°C° 0,2 mm 4 m/s 739 mmHg 91%
    07:00 0°C° 0,2 mm 4 m/s 740 mmHg 90%
    08:00 +1°C° 0,1 mm 4 m/s 740 mmHg 89%
    09:00 +4°C° 0,1 mm 4 m/s 740 mmHg 88%
    10:00 +5°C° 0,1 mm 4 m/s 740 mmHg 86%
    11:00 +5°C° 0,1 mm 3 m/s 740 mmHg 87%
    12:00 +7°C° 0,1 mm 3 m/s 740 mmHg 87%
    13:00 +7°C° 0,1 mm 3 m/s 740 mmHg 87%
    14:00 +7°C° 0,1 mm 3 m/s 740 mmHg 88%
    15:00 +5°C° 0,1 mm 3 m/s 740 mmHg 89%
    16:00 +5°C° 0,1 mm 3 m/s 740 mmHg 89%
    17:00 +4°C° 0,1 mm 3 m/s 740 mmHg 89%
    18:00 +4°C° 0,1 mm 3 m/s 740 mmHg 89%
    19:00 +3°C° 0,1 mm 3 m/s 740 mmHg 89%
    20:00 +3°C° 0 mm 3 m/s 741 mmHg 89%
    21:00 +3°C° 0 mm 4 m/s 741 mmHg 89%
    22:00 +3°C° 0 mm 4 m/s 741 mmHg 89%
    23:00 +3°C° 0,1 mm 4 m/s 741 mmHg 89%

    Mâine, 18 Ianuarie, Miercuri

    Timp Temperatura Precipitaţii Vânt Presiune Umiditate
    00:00 +3°C° 0,1 mm 4 m/s 741 mmHg 88%
    01:00 +3°C° 0,1 mm 4 m/s 741 mmHg 88%
    02:00 +3°C° 0,3 mm 4 m/s 741 mmHg 88%
    03:00 +3°C° 0,3 mm 4 m/s 741 mmHg 88%
    04:00 +3°C° 0,3 mm 4 m/s 741 mmHg 89%
    05:00 +3°C° 0,2 mm 4 m/s 742 mmHg 88%
    06:00 +3°C° 0,2 mm 4 m/s 742 mmHg 88%
    07:00 +3°C° 0,2 mm 4 m/s 743 mmHg 88%
    08:00 +4°C° 0,1 mm 4 m/s 743 mmHg 87%
    09:00 +4°C° 0,1 mm 4 m/s 743 mmHg 85%
    10:00 +5°C° 0,1 mm 4 m/s 744 mmHg 83%
    11:00 +6°C° 0,1 mm 4 m/s 744 mmHg 83%
    12:00 +6°C° 0,1 mm 4 m/s 743 mmHg 83%
    13:00 +6°C° 0,1 mm 4 m/s 743 mmHg 83%
    14:00 +6°C° 0,2 mm 4 m/s 743 mmHg 83%
    15:00 +5°C° 0,2 mm 5 m/s 743 mmHg 84%
    16:00 +5°C° 0,2 mm 5 m/s 742 mmHg 85%
    17:00 +3°C° 0,6 mm 5 m/s 743 mmHg 86%
    18:00 +3°C° 0,6 mm 5 m/s 743 mmHg 87%
    19:00 +4°C° 0,6 mm 4 m/s 743 mmHg 88%
    20:00 +3°C° 0,9 mm 4 m/s 744 mmHg 88%
    21:00 +3°C° 0,9 mm 4 m/s 744 mmHg 89%
    22:00 +3°C° 0,9 mm 3 m/s 745 mmHg 90%
    23:00 +3°C° 0,3 mm 3 m/s 745 mmHg 89%

    Poimâine, 19 Ianuarie, Joi

    Timp Temperatura Precipitaţii Vânt Presiune Umiditate
    00:00 +3°C° 0,3 mm 3 m/s 745 mmHg 89%
    01:00 +2°C° 0,3 mm 3 m/s 745 mmHg 89%
    02:00 +2°C° 0,1 mm 3 m/s 746 mmHg 89%
    03:00 +2°C° 0,1 mm 3 m/s 746 mmHg 89%
    04:00 +2°C° 0,1 mm 3 m/s 746 mmHg 88%
    05:00 +1°C° 0 mm 3 m/s 746 mmHg 88%
    06:00 +1°C° 0 mm 3 m/s 746 mmHg 88%
    07:00 +1°C° 0 mm 3 m/s 747 mmHg 88%
    08:00 +2°C° 0 mm 3 m/s 747 mmHg 86%
    09:00 +3°C° 0 mm 4 m/s 747 mmHg 84%
    10:00 +4°C° 0 mm 4 m/s 748 mmHg 83%
    11:00 +5°C° 0,1 mm 4 m/s 748 mmHg 83%
    12:00 +5°C° 0,1 mm 4 m/s 748 mmHg 83%
    13:00 +5°C° 0,1 mm 3 m/s 748 mmHg 83%
    14:00 +5°C° 0,2 mm 3 m/s 748 mmHg 85%
    15:00 +4°C° 0,2 mm 3 m/s 748 mmHg 86%
    16:00 +4°C° 0,2 mm 3 m/s 748 mmHg 87%
    17:00 +4°C° 0,1 mm 3 m/s 749 mmHg 88%
    18:00 +3°C° 0,1 mm 3 m/s 749 mmHg 88%
    19:00 +3°C° 0,1 mm 3 m/s 750 mmHg 88%
    20:00 +2°C° 0 mm 3 m/s 750 mmHg 88%
    21:00 +2°C° 0 mm 3 m/s 750 mmHg 88%
    22:00 +1°C° 0 mm 3 m/s 751 mmHg 88%
    23:00 +1°C° 0 mm 3 m/s 751 mmHg 88%

    20 Ianuarie, Vineri

    Timp Temperatura Precipitaţii Vânt Presiune Umiditate
    00:00 +1°C° 0 mm 3 m/s 751 mmHg 88%
    01:00 0°C° 0 mm 3 m/s 751 mmHg 88%
    02:00 0°C° 0 mm 3 m/s 751 mmHg 88%
    03:00 0°C° 0 mm 3 m/s 751 mmHg 88%
    04:00 0°C° 0 mm 3 m/s 752 mmHg 87%
    05:00 0°C° 0 mm 3 m/s 752 mmHg 87%
    06:00 0°C° 0 mm 3 m/s 752 mmHg 87%
    07:00 0°C° 0 mm 3 m/s 752 mmHg 87%
    08:00 +1°C° 0 mm 3 m/s 753 mmHg 85%
    09:00 +3°C° 0 mm 3 m/s 753 mmHg 83%
    10:00 +4°C° 0 mm 3 m/s 753 mmHg 81%
    11:00 +6°C° 0 mm 2 m/s 753 mmHg 79%
    12:00 +7°C° 0 mm 2 m/s 752 mmHg 78%
    13:00 +8°C° 0 mm 2 m/s 752 mmHg 77%
    14:00 +7°C° 0 mm 2 m/s 752 mmHg 80%
    15:00 +6°C° 0 mm 2 m/s 752 mmHg 82%
    16:00 +6°C° 0 mm 2 m/s 752 mmHg 85%
    17:00 +5°C° 0 mm 2 m/s 752 mmHg 85%
    18:00 +4°C° 0 mm 2 m/s 753 mmHg 86%
    19:00 +2°C° 0 mm 3 m/s 753 mmHg 87%
    20:00 +2°C° 0 mm 3 m/s 753 mmHg 87%
    21:00 +2°C° 0 mm 3 m/s 753 mmHg 87%
    22:00 +1°C° 0 mm 3 m/s 753 mmHg 87%
    23:00 +1°C° 0 mm 3 m/s 753 mmHg 87%

    21 Ianuarie, Sâmbătă

    Timp Temperatura Precipitaţii Vânt Presiune Umiditate
    00:00 +1°C° 0 mm 3 m/s 753 mmHg 86%
    01:00 +1°C° 0 mm 3 m/s 753 mmHg 86%
    02:00 +1°C° 0 mm 3 m/s 753 mmHg 86%
    03:00 0°C° 0 mm 3 m/s 753 mmHg 86%
    04:00 0°C° 0 mm 3 m/s 753 mmHg 86%
    05:00 0°C° 0 mm 3 m/s 753 mmHg 86%
    06:00 0°C° 0 mm 3 m/s 753 mmHg 86%
    07:00 0°C° 0 mm 3 m/s 752 mmHg 86%
    08:00 +2°C° 0 mm 3 m/s 753 mmHg 83%
    09:00 +3°C° 0 mm 3 m/s 753 mmHg 81%
    10:00 +5°C° 0 mm 3 m/s 753 mmHg 78%
    11:00 +7°C° 0 mm 3 m/s 752 mmHg 78%
    12:00 +7°C° 0 mm 3 m/s 752 mmHg 77%
    13:00 +8°C° 0 mm 3 m/s 752 mmHg 76%
    14:00 +8°C° 0 mm 3 m/s 751 mmHg 79%
    15:00 +7°C° 0 mm 3 m/s 751 mmHg 81%
    16:00 +5°C° 0 mm 3 m/s 751 mmHg 83%
    17:00 +5°C° 0 mm 3 m/s 751 mmHg 84%
    18:00 +4°C° 0 mm 3 m/s 751 mmHg 85%
    19:00 +3°C° 0 mm 3 m/s 751 mmHg 86%
    20:00 +3°C° 0 mm 3 m/s 751 mmHg 86%
    21:00 +3°C° 0 mm 3 m/s 751 mmHg 85%
    22:00 +3°C° 0 mm 3 m/s 751 mmHg 85%
    23:00 +3°C° 0 mm 3 m/s 751 mmHg 85%

    22 Ianuarie, Duminică

    Timp Temperatura Precipitaţii Vânt Presiune Umiditate
    00:00 +3°C° 0 mm 3 m/s 751 mmHg 85%
    01:00 +3°C° 0 mm 3 m/s 750 mmHg 85%
    02:00 +3°C° 0 mm 3 m/s 750 mmHg 85%
    03:00 +1°C° 0 mm 4 m/s 749 mmHg 86%
    04:00 +1°C° 0 mm 4 m/s 749 mmHg 86%
    05:00 +1°C° 0 mm 4 m/s 749 mmHg 85%
    06:00 +1°C° 0 mm 4 m/s 748 mmHg 84%
    07:00 +2°C° 0 mm 5 m/s 748 mmHg 83%
    08:00 +3°C° 0 mm 5 m/s 748 mmHg 81%
    09:00 +5°C° 0 mm 5 m/s 748 mmHg 78%
    10:00 +6°C° 0 mm 5 m/s 748 mmHg 76%
    11:00 +6°C° 0,1 mm 5 m/s 747 mmHg 76%
    12:00 +7°C° 0,1 mm 5 m/s 747 mmHg 75%
    13:00 +7°C° 0,1 mm 5 m/s 746 mmHg 75%
    14:00 +7°C° 0,8 mm 4 m/s 746 mmHg 78%
    15:00 +6°C° 0,8 mm 4 m/s 746 mmHg 82%
    16:00 +5°C° 0,8 mm 4 m/s 746 mmHg 86%
    17:00 +5°C° 1 mm 3 m/s 746 mmHg 87%
    18:00 +5°C° 1 mm 3 m/s 746 mmHg 88%
    19:00 +4°C° 1 mm 3 m/s 746 mmHg 89%
    20:00 +4°C° 0,3 mm 4 m/s 746 mmHg 89%
    21:00 +4°C° 0,3 mm 4 m/s 746 mmHg 89%
    22:00 +4°C° 0,3 mm 4 m/s 746 mmHg 89%
    23:00 +4°C° 0,2 mm 4 m/s 745 mmHg 89%
    Arată mai mult